シフレオ彗星

108P/Ciffreo (2014)

English version
Home page
Updated on July 20, 2015

---------------------------------------------------------------------

・ プロフィール

・ 写真集

・ 軌道要素

Epoch 2014 May 23.0 TT = JDT 2456800.5
T 2014 Oct. 18.40008 TT                                 MPC
q   1.7088710            (2000.0)            P               Q
n   0.13623000     Peri.  358.06488     +0.61857234     -0.76422479
a   3.7407114      Node    53.67154     +0.72390081     +0.46395999
e   0.5431695      Incl.   13.09734     +0.30550920     +0.44799731
P   7.23
From 128 observations 1992 Aug. 26-2014 Aug. 6, mean residual 0".7.
     Nongravitational parameters A1 = +0.08, A2 = -0.0277.

・ 星図

・ 光度変化

        m1 = 9.0 + 5 logΔ + 25.0 log r

---------------------------------------------------------------------

軌道要素はM.P.E.C. 2014-P41に掲載されたものです。
星図はステラナビゲータ Ver.8 (アストロアーツ) で作成したものです。
光度グラフはComet for Windowsで作成したものです。

---------------------------------------------------------------------

Copyright(C) Seiichi Yoshida (comet@aerith.net). All rights reserved.